Radiation Dose at Monitoring Post of Fukushima Daini Nuclear Power Station
Date,Time,MP-1(microSv/h),MP-2(microSv/h),MP-3(microSv/h),MP-4(microSv/h),MP-5(microSv/h),MP-6(microSv/h),MP-7(microSv/h),Wind Direction,Wind Velocity(m/s),Rain
2018/12/01,00:00,0.263,0.193,0.310,0.297,0.282,0.157,0.096,north-northeast,1.3,No
2018/12/01,00:10,0.263,0.193,0.309,0.299,0.281,0.158,0.096,north,1.3,No
2018/12/01,00:20,0.261,0.193,0.311,0.298,0.282,0.157,0.096,north,0.9,No
2018/12/01,00:30,0.262,0.193,0.311,0.298,0.281,0.157,0.095,north,1.6,No
2018/12/01,00:40,0.262,0.192,0.311,0.300,0.281,0.156,0.097,north,1.0,No
2018/12/01,00:50,0.262,0.191,0.311,0.299,0.281,0.157,0.096,north-northwest,1.5,No
2018/12/01,01:00,0.264,0.193,0.310,0.300,0.281,0.157,0.096,north-northeast,1.5,No
2018/12/01,01:10,0.262,0.193,0.309,0.298,0.280,0.157,0.096,northeast,1.3,Yes
2018/12/01,01:20,0.262,0.191,0.312,0.297,0.281,0.157,0.096,northeast,0.8,No
2018/12/01,01:30,0.263,0.192,0.311,0.299,0.282,0.157,0.096,-,CALM,No
2018/12/01,01:40,0.261,0.192,0.310,0.297,0.280,0.156,0.097,-,CALM,No
2018/12/01,01:50,0.262,0.192,0.309,0.299,0.282,0.157,0.096,south,1.0,No
2018/12/01,02:00,0.264,0.194,0.309,0.297,0.281,0.156,0.096,-,CALM,No
2018/12/01,02:10,0.263,0.193,0.310,0.298,0.279,0.157,0.097,south-southwest,2.1,No
2018/12/01,02:20,0.262,0.194,0.309,0.298,0.281,0.157,0.095,south-southwest,1.7,No
2018/12/01,02:30,0.263,0.193,0.310,0.298,0.281,0.157,0.096,south-southwest,2.2,No
2018/12/01,02:40,0.262,0.192,0.311,0.298,0.283,0.157,0.096,south-southwest,1.7,No
2018/12/01,02:50,0.262,0.192,0.310,0.299,0.280,0.157,0.096,south-southeast,1.2,No
2018/12/01,03:00,0.263,0.192,0.311,0.298,0.281,0.157,0.096,south-southwest,1.8,No
2018/12/01,03:10,0.263,0.192,0.308,0.298,0.281,0.157,0.097,south-southwest,1.4,No
2018/12/01,03:20,0.264,0.193,0.310,0.298,0.280,0.157,0.096,south-southwest,1.3,No
2018/12/01,03:30,0.261,0.193,0.310,0.299,0.282,0.157,0.096,south,1.2,No
2018/12/01,03:40,0.263,0.194,0.311,0.297,0.282,0.157,0.096,south,1.1,No
2018/12/01,03:50,0.263,0.192,0.310,0.297,0.281,0.157,0.096,south,2.1,No
2018/12/01,04:00,0.263,0.193,0.310,0.298,0.282,0.157,0.096,south-southwest,1.9,No
2018/12/01,04:10,0.262,0.193,0.310,0.298,0.282,0.156,0.095,south-southwest,2.0,No
2018/12/01,04:20,0.263,0.193,0.309,0.298,0.283,0.157,0.096,south-southwest,1.3,No
2018/12/01,04:30,0.262,0.193,0.309,0.298,0.280,0.158,0.096,south-southwest,2.7,No
2018/12/01,04:40,0.263,0.193,0.310,0.297,0.280,0.157,0.097,southwest,3.4,No
2018/12/01,04:50,0.261,0.194,0.311,0.298,0.281,0.156,0.096,southwest,3.7,No
2018/12/01,05:00,0.262,0.194,0.309,0.300,0.280,0.156,0.097,southwest,4.0,No
2018/12/01,05:10,0.262,0.192,0.309,0.298,0.281,0.157,0.096,south-southwest,3.8,No
2018/12/01,05:20,0.262,0.192,0.310,0.297,0.281,0.157,0.096,south-southwest,4.1,No
2018/12/01,05:30,0.262,0.192,0.310,0.298,0.281,0.156,0.096,south,5.8,No
2018/12/01,05:40,0.262,0.193,0.309,0.298,0.280,0.157,0.096,south,7.0,No
2018/12/01,05:50,0.262,0.193,0.310,0.299,0.280,0.156,0.096,south,7.1,No
2018/12/01,06:00,0.263,0.193,0.310,0.298,0.281,0.157,0.097,south-southwest,6.7,No
2018/12/01,06:10,0.262,0.194,0.311,0.299,0.282,0.158,0.096,south-southwest,5.8,No
2018/12/01,06:20,0.262,0.193,0.309,0.299,0.280,0.157,0.096,south-southwest,5.7,No
2018/12/01,06:30,0.264,0.193,0.309,0.299,0.281,0.157,0.096,south-southwest,5.3,No
2018/12/01,06:40,0.262,0.193,0.310,0.297,0.280,0.157,0.095,south-southwest,4.9,No
2018/12/01,06:50,0.262,0.192,0.310,0.298,0.282,0.157,0.096,south-southwest,3.8,No
2018/12/01,07:00,0.263,0.193,0.309,0.300,0.281,0.158,0.096,south-southwest,5.0,No
2018/12/01,07:10,0.263,0.191,0.310,0.298,0.280,0.157,0.096,south-southwest,4.2,No
2018/12/01,07:20,0.262,0.193,0.311,0.297,0.280,0.157,0.095,south-southwest,5.4,No
2018/12/01,07:30,0.261,0.193,0.309,0.299,0.280,0.156,0.096,southwest,6.0,No
2018/12/01,07:40,0.263,0.193,0.308,0.298,0.281,0.157,0.096,southwest,6.2,No
2018/12/01,07:50,0.262,0.193,0.310,0.296,0.280,0.157,0.096,southwest,6.4,No
2018/12/01,08:00,0.261,0.192,0.309,0.297,0.280,0.158,0.096,southwest,5.1,No
2018/12/01,08:10,0.263,0.194,0.309,0.297,0.280,0.157,0.096,southwest,6.5,No
2018/12/01,08:20,0.261,0.192,0.309,0.296,0.279,0.156,0.095,southwest,6.1,No
2018/12/01,08:30,0.262,0.193,0.309,0.297,0.281,0.157,0.095,southwest,6.2,No
2018/12/01,08:40,0.261,0.193,0.310,0.296,0.282,0.156,0.095,south-southwest,5.0,No
2018/12/01,08:50,0.264,0.191,0.310,0.296,0.281,0.156,0.096,south-southwest,4.9,No
2018/12/01,09:00,0.261,0.192,0.307,0.299,0.282,0.155,0.096,south-southwest,5.3,No
2018/12/01,09:10,0.262,0.193,0.308,0.296,0.281,0.157,0.095,south-southwest,4.0,No
2018/12/01,09:20,0.262,0.191,0.309,0.298,0.282,0.156,0.096,south,3.3,No
2018/12/01,09:30,0.263,0.193,0.309,0.296,0.280,0.158,0.096,south,2.6,No
2018/12/01,09:40,0.261,0.192,0.308,0.298,0.281,0.157,0.096,southwest,3.6,No
2018/12/01,09:50,0.262,0.191,0.309,0.296,0.279,0.157,0.096,west-southwest,5.4,No
2018/12/01,10:00,0.261,0.191,0.308,0.298,0.281,0.156,0.095,southwest,4.2,No
2018/12/01,10:10,0.262,0.191,0.309,0.295,0.278,0.157,0.095,southwest,4.0,No
2018/12/01,10:20,0.260,0.191,0.311,0.299,0.282,0.157,0.096,southwest,3.6,No
2018/12/01,10:30,0.260,0.192,0.309,0.296,0.279,0.157,0.096,west-southwest,4.7,No
2018/12/01,10:40,0.261,0.191,0.309,0.298,0.279,0.157,0.095,west,6.2,No
2018/12/01,10:50,0.261,0.193,0.309,0.296,0.281,0.157,0.095,west-northwest,6.7,No
2018/12/01,11:00,0.261,0.193,0.310,0.299,0.279,0.156,0.095,west-northwest,7.6,No
2018/12/01,11:10,0.262,0.193,0.309,0.296,0.282,0.157,0.095,west,5.8,No
2018/12/01,11:20,0.260,0.192,0.308,0.298,0.281,0.157,0.096,west-northwest,8.8,No
2018/12/01,11:30,0.262,0.191,0.311,0.295,0.283,0.157,0.095,west,12.2,No
2018/12/01,11:40,0.261,0.192,0.307,0.299,0.279,0.158,0.095,west-southwest,10.3,No
2018/12/01,11:50,0.262,0.192,0.309,0.295,0.281,0.157,0.095,west,8.7,No
2018/12/01,12:00,0.260,0.192,0.307,0.296,0.280,0.158,0.095,west,7.1,No
2018/12/01,12:10,0.261,0.191,0.309,0.295,0.282,0.157,0.095,west-southwest,12.0,No
2018/12/01,12:20,0.261,0.192,0.306,0.296,0.280,0.158,0.096,west-northwest,10.3,No
2018/12/01,12:30,0.260,0.190,0.310,0.299,0.281,0.157,0.094,west,12.8,No
2018/12/01,12:40,0.262,0.191,0.308,0.296,0.280,0.157,0.095,west,18.1,Yes
2018/12/01,12:50,0.262,0.192,0.309,0.298,0.281,0.156,0.095,west-northwest,13.3,No
2018/12/01,13:00,0.262,0.190,0.308,0.296,0.281,0.157,0.096,west,14.0,No
2018/12/01,13:10,0.262,0.192,0.310,0.299,0.282,0.156,0.095,west-northwest,11.5,No
2018/12/01,13:20,0.261,0.190,0.311,0.296,0.283,0.157,0.095,west-northwest,11.4,No
2018/12/01,13:30,0.262,0.193,0.308,0.298,0.281,0.156,0.095,west-northwest,10.1,No
2018/12/01,13:40,0.262,0.192,0.310,0.297,0.283,0.157,0.096,west-northwest,10.1,No
2018/12/01,13:50,0.264,0.193,0.309,0.297,0.281,0.157,0.095,west-northwest,10.0,No
2018/12/01,14:00,0.262,0.192,0.311,0.297,0.282,0.157,0.095,west-northwest,10.6,No
2018/12/01,14:10,0.263,0.193,0.310,0.298,0.280,0.155,0.096,north-northwest,7.7,Yes
2018/12/01,14:20,0.263,0.193,0.310,0.299,0.282,0.157,0.096,northwest,7.0,Yes
2018/12/01,14:30,0.263,0.193,0.311,0.298,0.281,0.157,0.096,northwest,6.2,Yes
2018/12/01,14:40,0.264,0.194,0.310,0.298,0.283,0.156,0.096,northwest,7.1,No
2018/12/01,14:50,0.263,0.192,0.310,0.298,0.282,0.157,0.096,north-northwest,7.8,No
2018/12/01,15:00,0.264,0.193,0.310,0.299,0.284,0.157,0.096,west-northwest,7.3,No
2018/12/01,15:10,0.265,0.194,0.310,0.300,0.284,0.157,0.096,northwest,6.0,No
2018/12/01,15:20,0.263,0.194,0.312,0.298,0.283,0.157,0.096,northwest,6.7,No
2018/12/01,15:30,0.264,0.194,0.311,0.300,0.284,0.158,0.096,northwest,5.8,No
2018/12/01,15:40,0.263,0.193,0.309,0.299,0.282,0.157,0.097,west-northwest,6.7,No
2018/12/01,15:50,0.263,0.193,0.312,0.298,0.282,0.157,0.096,west-northwest,7.4,No
2018/12/01,16:00,0.263,0.194,0.310,0.299,0.283,0.157,0.096,northwest,4.6,No
2018/12/01,16:10,0.263,0.193,0.311,0.298,0.281,0.157,0.095,north-northwest,2.7,No
2018/12/01,16:20,0.263,0.193,0.311,0.300,0.284,0.157,0.096,north,2.5,No
2018/12/01,16:30,0.264,0.193,0.310,0.298,0.283,0.157,0.096,north-northeast,4.3,No
2018/12/01,16:40,0.264,0.194,0.310,0.298,0.282,0.158,0.095,north,4.5,No
2018/12/01,16:50,0.263,0.193,0.311,0.299,0.283,0.158,0.095,north,6.2,No
2018/12/01,17:00,0.265,0.194,0.310,0.300,0.283,0.159,0.096,north,7.8,No
2018/12/01,17:10,0.263,0.193,0.310,0.300,0.283,0.157,0.096,north,7.8,No
2018/12/01,17:20,0.264,0.193,0.312,0.299,0.282,0.158,0.096,north,6.7,No
2018/12/01,17:30,0.264,0.193,0.310,0.301,0.282,0.158,0.096,north-northeast,7.5,No
2018/12/01,17:40,0.263,0.193,0.310,0.299,0.282,0.158,0.095,north,8.5,No
2018/12/01,17:50,0.263,0.193,0.310,0.299,0.282,0.157,0.096,north,7.9,No
2018/12/01,18:00,0.263,0.193,0.311,0.300,0.282,0.157,0.096,north,6.9,No
2018/12/01,18:10,0.265,0.193,0.310,0.298,0.282,0.157,0.096,north-northwest,4.6,No
2018/12/01,18:20,0.263,0.194,0.311,0.299,0.283,0.158,0.096,west-northwest,3.4,No
2018/12/01,18:30,0.263,0.194,0.311,0.300,0.282,0.157,0.097,northwest,2.3,No
2018/12/01,18:40,0.264,0.193,0.309,0.299,0.282,0.158,0.095,northwest,1.4,No
2018/12/01,18:50,0.264,0.194,0.310,0.298,0.281,0.157,0.097,north,1.8,No
2018/12/01,19:00,0.264,0.194,0.311,0.298,0.283,0.157,0.095,north-northwest,4.2,No
2018/12/01,19:10,0.264,0.194,0.311,0.299,0.282,0.158,0.095,north-northwest,4.5,No
2018/12/01,19:20,0.263,0.193,0.311,0.299,0.282,0.158,0.096,north,2.9,No
2018/12/01,19:30,0.263,0.193,0.309,0.298,0.281,0.157,0.096,north-northeast,3.3,No
2018/12/01,19:40,0.263,0.194,0.310,0.298,0.282,0.158,0.097,north,3.1,No
2018/12/01,19:50,0.264,0.193,0.312,0.299,0.283,0.158,0.096,north,4.1,No
2018/12/01,20:00,0.263,0.193,0.310,0.299,0.280,0.158,0.096,north-northwest,5.3,No
2018/12/01,20:10,0.263,0.195,0.310,0.299,0.282,0.158,0.096,north-northwest,5.1,No
2018/12/01,20:20,0.263,0.193,0.310,0.298,0.282,0.158,0.096,north-northwest,4.7,No
2018/12/01,20:30,0.263,0.193,0.310,0.299,0.280,0.157,0.095,north-northwest,4.3,No
2018/12/01,20:40,0.264,0.193,0.309,0.299,0.281,0.157,0.096,north-northwest,3.4,No
2018/12/01,20:50,0.263,0.193,0.310,0.299,0.281,0.157,0.096,north-northwest,3.6,No
2018/12/01,21:00,0.264,0.192,0.310,0.299,0.281,0.156,0.097,north-northwest,2.4,No
2018/12/01,21:10,0.262,0.192,0.310,0.299,0.281,0.158,0.096,north-northwest,2.5,No
2018/12/01,21:20,0.263,0.192,0.311,0.298,0.282,0.156,0.096,northwest,2.7,No
2018/12/01,21:30,0.264,0.194,0.311,0.298,0.282,0.157,0.095,northwest,2.4,No
2018/12/01,21:40,0.263,0.193,0.310,0.299,0.281,0.157,0.095,west-northwest,2.4,No
2018/12/01,21:50,0.263,0.193,0.309,0.299,0.281,0.157,0.096,northwest,2.1,No
2018/12/01,22:00,0.263,0.193,0.311,0.300,0.281,0.157,0.096,northwest,2.6,No
2018/12/01,22:10,0.263,0.194,0.310,0.298,0.282,0.157,0.096,north-northwest,2.4,No
2018/12/01,22:20,0.264,0.194,0.310,0.300,0.281,0.157,0.096,north-northwest,3.0,No
2018/12/01,22:30,0.262,0.192,0.311,0.299,0.280,0.158,0.096,northwest,4.0,No
2018/12/01,22:40,0.263,0.192,0.310,0.299,0.281,0.156,0.095,north-northwest,3.5,No
2018/12/01,22:50,0.263,0.194,0.309,0.298,0.281,0.158,0.096,northwest,2.0,No
2018/12/01,23:00,0.264,0.193,0.311,0.298,0.281,0.156,0.096,west-northwest,1.8,No
2018/12/01,23:10,0.263,0.193,0.312,0.298,0.280,0.157,0.096,west-northwest,1.7,No
2018/12/01,23:20,0.263,0.192,0.312,0.300,0.282,0.156,0.095,northwest,2.7,No
2018/12/01,23:30,0.263,0.192,0.310,0.299,0.280,0.156,0.095,north-northwest,4.6,No
2018/12/01,23:40,0.263,0.193,0.310,0.300,0.282,0.157,0.096,north-northwest,5.8,No
2018/12/01,23:50,0.264,0.192,0.310,0.298,0.281,0.157,0.097,northwest,6.7,No
